GW6388 Weather Reports


Display with metric or nautical units.
time (UTC)temp
F
wind
direction
speed
MPH
gust
MPH
rain 1hr
in
rain 24hr
in
rain mn
in
humidity
%
barometer
mb
20260508023131 45 355 1.0 1.0 0.00 0.00 0.00 73 1096.1
20260508022626 45 25 0.0 1.0 0.00 0.00 0.00 71 1096.2
20260508022124 46 4 0.0 1.0 0.00 0.00 0.00 68 1096.4
20260508021619 46 8 0.0 1.0 0.00 0.00 0.00 67 1096.2
20260508021115 47 11 0.0 1.0 0.00 0.00 0.00 66 1096.1
20260508020613 47 10 1.0 1.0 0.00 0.00 0.00 65 1096.1
20260508020111 48 32 0.0 1.0 0.00 0.00 0.00 62 1096.1
20260508015608 49 24 0.0 1.0 0.00 0.00 0.00 60 1096.2
20260508015105 49 16 0.0 1.0 0.00 0.00 0.00 57 1096.1
20260508014601 50 359 1.0 2.0 0.00 0.00 0.00 56 1096.0
20260508014057 50 347 1.0 1.0 0.00 0.00 0.00 56 1096.0
20260508013553 50 20 0.0 1.0 0.00 0.00 0.00 56 1095.8
20260508013051 51 12 1.0 1.0 0.00 0.00 0.00 53 1095.8
20260508012548 51 2 1.0 1.0 0.00 0.00 0.00 53 1095.8
20260508012045 51 359 1.0 2.0 0.00 0.00 0.00 52 1095.5
20260508011544 51 348 2.0 2.0 0.00 0.00 0.00 51 1095.6
20260508011041 51 13 0.0 4.0 0.00 0.00 0.00 51 1095.3
20260508010537 51 330 2.0 2.0 0.00 0.00 0.00 50 1095.2
20260508010035 52 354 1.0 3.0 0.00 0.00 0.00 48 1095.5
20260508005531 52 20 2.0 2.0 0.00 0.00 0.00 47 1095.3
20260508005028 52 18 0.0 1.0 0.00 0.00 0.00 47 1095.0
20260508004524 53 8 1.0 3.0 0.00 0.00 0.00 45 1095.1
20260508004021 53 356 2.0 10.0 0.00 0.00 0.00 44 1095.2
20260508003517 53 297 4.0 7.0 0.00 0.00 0.00 43 1095.0
20260508003015 53 300 5.0 6.0 0.00 0.00 0.00 42 1094.9
20260508002511 54 354 3.0 7.0 0.00 0.00 0.00 42 1094.8
20260508002008 54 7 5.0 11.0 0.00 0.00 0.00 42 1094.6
20260508001504 54 332 9.0 11.0 0.00 0.00 0.00 41 1094.6
20260508001000 55 291 4.0 8.0 0.00 0.00 0.00 41 1094.5
20260508000457 55 1 5.0 7.0 0.00 0.00 0.00 41 1094.5
20260507235954 55 290 6.0 9.0 0.00 0.00 0.00 41 1094.4
20260507235450 56 218 8.0 10.0 0.00 0.00 0.00 41 1094.2
20260507234948 56 292 4.0 10.0 0.00 0.00 0.00 41 1094.2
20260507234444 56 314 5.0 13.0 0.00 0.00 0.00 41 1094.2
20260507233941 56 296 5.0 16.0 0.00 0.00 0.00 40 1094.5
20260507233438 57 283 6.0 9.0 0.00 0.00 0.00 40 1094.0
20260507232936 57 217 7.0 13.0 0.00 0.00 0.00 39 1093.9
20260507232432 57 0 7.0 16.0 0.00 0.00 0.00 39 1094.0
20260507231930 57 264 6.0 14.0 0.00 0.00 0.00 39 1094.0
20260507231425 57 342 7.0 11.0 0.00 0.00 0.00 40 1093.7
20260507230922 57 263 8.0 11.0 0.00 0.00 0.00 40 1093.8
20260507230420 56 345 7.0 15.0 0.00 0.00 0.00 40 1093.6
20260507225920 57 297 5.0 16.0 0.00 0.00 0.00 39 1093.8
20260507225417 57 348 8.0 10.0 0.00 0.00 0.00 38 1093.7
20260507224913 57 234 7.0 16.0 0.00 0.00 0.00 38 1093.6
20260507224409 57 339 4.0 6.0 0.00 0.00 0.00 38 1093.4
20260507223906 57 259 10.0 13.0 0.00 0.00 0.00 38 1093.7
20260507223401 57 302 8.0 9.0 0.00 0.00 0.00 37 1093.6
20260507222859 57 290 5.0 10.0 0.00 0.00 0.00 37 1093.4
20260507222355 58 240 6.0 8.0 0.00 0.00 0.00 38 1093.4
20260507221852 58 217 4.0 10.0 0.00 0.00 0.00 38 1093.3
20260507221348 58 277 5.0 7.0 0.00 0.00 0.00 38 1093.2
20260507220845 58 288 5.0 10.0 0.00 0.00 0.00 37 1093.2
20260507220343 59 307 7.0 16.0 0.00 0.00 0.00 36 1093.3
20260507215839 59 273 9.0 11.0 0.00 0.00 0.00 36 1093.0
20260507215336 58 244 2.0 9.0 0.00 0.00 0.00 36 1092.9
20260507214833 59 4 4.0 9.0 0.00 0.00 0.00 35 1092.9
20260507214331 59 227 8.0 10.0 0.00 0.00 0.00 37 1092.7
20260507213831 59 308 8.0 11.0 0.00 0.00 0.00 36 1092.6
20260507213329 59 278 2.0 9.0 0.00 0.00 0.00 34 1092.6
20260507212825 60 355 8.0 10.0 0.00 0.00 0.00 36 1092.6
20260507212321 59 339 5.0 8.0 0.00 0.00 0.00 36 1092.6
20260507211818 59 301 4.0 15.0 0.00 0.00 0.00 36 1092.7
20260507211315 60 281 11.0 14.0 0.00 0.00 0.00 35 1092.9
20260507210812 60 346 6.0 7.0 0.00 0.00 0.00 36 1092.7
20260507210309 59 285 5.0 10.0 0.00 0.00 0.00 36 1092.6
20260507205805 60 2 4.0 10.0 0.00 0.00 0.00 36 1092.6
20260507205306 59 287 3.0 11.0 0.00 0.00 0.00 38 1092.7
20260507204758 59 231 7.0 21.0 0.00 0.00 0.00 36 1092.7
20260507204256 60 266 6.0 10.0 0.00 0.00 0.00 35 1092.6
20260507203753 59 310 8.0 11.0 0.00 0.00 0.00 35 1092.8
20260507203251 59 322 3.0 6.0 0.00 0.00 0.00 37 1092.5
20260507202747 60 325 11.0 13.0 0.00 0.00 0.00 34 1092.6
20260507202243 58 253 9.0 15.0 0.00 0.00 0.00 35 1092.7
20260507201738 59 283 6.0 9.0 0.00 0.00 0.00 36 1092.5
20260507201235 59 345 9.0 14.0 0.00 0.00 0.00 36 1092.7
20260507200731 60 341 6.0 10.0 0.00 0.00 0.00 36 1092.9
20260507200227 60 355 4.0 11.0 0.00 0.00 0.00 36 1092.8
20260507195724 60 324 5.0 7.0 0.00 0.00 0.00 37 1092.8
20260507195221 58 9 3.0 7.0 0.00 0.00 0.00 37 1092.9
20260507194718 59 308 6.0 13.0 0.00 0.00 0.00 36 1093.0
20260507194214 59 300 8.0 10.0 0.00 0.00 0.00 34 1092.8
20260507193711 60 322 6.0 15.0 0.00 0.00 0.00 35 1093.2
20260507193208 59 246 3.0 8.0 0.00 0.00 0.00 34 1093.3
20260507192704 59 324 5.0 15.0 0.00 0.00 0.00 34 1093.0
20260507192201 59 345 8.0 17.0 0.00 0.00 0.00 33 1092.9
20260507191656 60 303 7.0 9.0 0.00 0.00 0.00 33 1093.2
20260507191154 59 335 4.0 8.0 0.00 0.00 0.00 35 1092.9
20260507190651 59 348 4.0 13.0 0.00 0.00 0.00 33 1093.2
20260507190149 59 19 2.0 3.0 0.00 0.00 0.00 34 1092.9
20260507185648 59 325 3.0 15.0 0.00 0.00 0.00 36 1093.0
20260507185144 60 199 13.0 16.0 0.00 0.00 0.00 35 1093.0
20260507184642 59 349 5.0 15.0 0.00 0.00 0.00 38 1092.9
20260507184140 58 1 4.0 8.0 0.00 0.00 0.00 40 1093.5
20260507183635 59 9 4.0 11.0 0.00 0.00 0.00 36 1093.4
20260507183133 60 346 10.0 16.0 0.00 0.00 0.00 35 1093.2
20260507182629 59 326 2.0 9.0 0.00 0.00 0.00 39 1093.0
20260507182125 58 18 3.0 7.0 0.00 0.00 0.00 39 1093.2
20260507181622 58 32 4.0 10.0 0.00 0.00 0.00 38 1093.7
20260507181118 58 267 7.0 15.0 0.00 0.00 0.00 39 1093.3
20260507180615 58 19 7.0 8.0 0.00 0.00 0.00 40 1093.3
20260507180112 59 111 2.0 11.0 0.00 0.00 0.00 40 1093.5
20260507175608 58 290 9.0 10.0 0.00 0.00 0.00 40 1093.4
20260507175106 59 293 8.0 9.0 0.00 0.00 0.00 39 1093.7
20260507174602 58 200 5.0 7.0 0.00 0.00 0.00 42 1093.5
20260507174100 57 234 6.0 10.0 0.00 0.00 0.00 41 1093.6
20260507173557 58 247 3.0 6.0 0.00 0.00 0.00 41 1093.7
20260507173054 58 152 3.0 8.0 0.00 0.00 0.00 42 1093.7
20260507172550 58 29 1.0 9.0 0.00 0.00 0.00 39 1093.7
20260507172047 58 15 4.0 9.0 0.00 0.00 0.00 40 1093.8
20260507171542 57 292 7.0 9.0 0.00 0.00 0.00 43 1094.0
20260507171040 57 239 8.0 9.0 0.00 0.00 0.00 42 1094.1
20260507170536 57 10 2.0 3.0 0.00 0.00 0.00 43 1093.9
20260507170033 57 357 4.0 7.0 0.00 0.00 0.00 42 1094.1
20260507165529 58 24 1.0 6.0 0.00 0.00 0.00 43 1094.0
20260507165026 60 341 4.0 6.0 0.00 0.00 0.00 41 1094.1
20260507164522 60 218 5.0 7.0 0.00 0.00 0.00 42 1094.2
20260507164019 59 0 3.0 7.0 0.00 0.00 0.00 39 1094.2
20260507163516 59 297 1.0 2.0 0.00 0.00 0.00 45 1094.2
20260507163014 57 346 4.0 9.0 0.00 0.00 0.00 46 1094.5
20260507162509 57 267 8.0 10.0 0.00 0.00 0.00 45 1094.6
20260507162006 56 302 4.0 6.0 0.00 0.00 0.00 49 1094.2
20260507161502 58 328 4.0 8.0 0.00 0.00 0.00 44 1094.2
20260507160959 58 14 0.0 3.0 0.00 0.00 0.00 44 1094.5
20260507160455 57 292 6.0 8.0 0.00 0.00 0.00 46 1094.5
20260507155951 55 352 3.0 4.0 0.00 0.00 0.00 48 1094.5
20260507155447 55 340 4.0 4.0 0.00 0.00 0.00 49 1094.5
20260507154944 55 17 4.0 8.0 0.00 0.00 0.00 48 1094.7
20260507154441 57 335 2.0 6.0 0.00 0.00 0.00 49 1094.7
20260507153938 56 357 2.0 6.0 0.00 0.00 0.00 46 1094.6
20260507153435 55 345 2.0 3.0 0.00 0.00 0.00 48 1094.8
20260507152931 55 312 2.0 3.0 0.00 0.00 0.00 45 1094.7
20260507152427 56 262 2.0 6.0 0.00 0.00 0.00 48 1094.9
20260507151923 55 313 3.0 9.0 0.00 0.00 0.00 48 1094.9
20260507151420 56 309 5.0 7.0 0.00 0.00 0.00 49 1095.1
20260507150917 56 308 6.0 11.0 0.00 0.00 0.00 48 1095.0
20260507150414 54 230 5.0 7.0 0.00 0.00 0.00 48 1095.0
20260507145910 55 351 0.0 2.0 0.00 0.00 0.00 50 1095.2
20260507145406 55 341 1.0 6.0 0.00 0.00 0.00 49 1095.3
20260507144903 55 290 8.0 9.0 0.00 0.00 0.00 48 1095.6
20260507144400 55 325 8.0 10.0 0.00 0.00 0.00 49 1095.3
20260507143857 56 249 4.0 8.0 0.00 0.00 0.00 48 1095.2
20260507143354 56 241 10.0 11.0 0.00 0.00 0.00 48 1095.6
20260507142850 55 30 0.0 8.0 0.00 0.00 0.00 49 1095.5
20260507142347 54 264 5.0 10.0 0.00 0.00 0.00 49 1095.8
20260507141844 55 280 6.0 11.0 0.00 0.00 0.00 47 1095.8
20260507141340 55 244 4.0 7.0 0.00 0.00 0.00 49 1096.0
20260507140837 55 158 3.0 6.0 0.00 0.00 0.00 52 1096.0
20260507140334 54 280 2.0 3.0 0.00 0.00 0.00 54 1095.9
20260507135832 54 349 2.0 6.0 0.00 0.00 0.00 52 1095.8
20260507135328 53 355 2.0 4.0 0.00 0.00 0.00 53 1096.2
20260507134826 53 22 4.0 8.0 0.00 0.00 0.00 56 1096.0
20260507134321 53 293 6.0 8.0 0.00 0.00 0.00 58 1096.2
20260507133817 52 282 5.0 7.0 0.00 0.00 0.00 58 1096.1
20260507133313 53 220 6.0 9.0 0.00 0.00 0.00 56 1096.2
20260507132812 53 30 1.0 3.0 0.00 0.00 0.00 61 1096.2
20260507132308 52 306 2.0 4.0 0.00 0.00 0.00 61 1096.1
20260507131805 52 27 1.0 7.0 0.00 0.00 0.00 61 1096.2
20260507131302 53 325 0.0 2.0 0.00 0.00 0.00 63 1096.3
20260507130758 52 64 1.0 2.0 0.00 0.00 0.00 65 1096.3
20260507130256 52 30 0.0 1.0 0.00 0.00 0.00 65 1096.3
20260507125755 51 72 1.0 1.0 0.00 0.00 0.00 69 1096.3
20260507125252 50 49 1.0 2.0 0.00 0.00 0.00 68 1096.2
20260507124749 49 236 2.0 2.0 0.00 0.00 0.00 71 1096.3
20260507124245 48 354 1.0 2.0 0.00 0.00 0.00 75 1096.4
20260507123744 47 18 1.0 2.0 0.00 0.00 0.00 82 1096.2
20260507123241 46 33 0.0 1.0 0.00 0.00 0.00 92 1096.4
20260507122736 44 34 0.0 0.0 0.00 0.00 0.00 96 1096.4
20260507122232 43 30 0.0 1.0 0.00 0.00 0.00 96 1096.2
20260507121728 42 44 0.0 0.0 0.00 0.00 0.00 97 1096.3
20260507121224 42 25 0.0 0.0 0.00 0.00 0.00 97 1096.3
20260507120720 41 27 0.0 0.0 0.00 0.00 0.00 97 1096.3
20260507120218 41 27 0.0 0.0 0.00 0.00 0.00 97 1096.3
20260507115714 40 31 0.0 0.0 0.00 0.00 0.00 97 1096.2
20260507115209 40 31 0.0 0.0 0.00 0.00 0.00 97 1096.2
20260507114705 39 22 0.0 0.0 0.00 0.00 0.00 97 1096.6
20260507114203 38 27 0.0 0.0 0.00 0.00 0.00 97 1096.7
20260507113700 37 26 0.0 0.0 0.00 0.00 0.00 97 1096.4
20260507113157 37 25 0.0 0.0 0.00 0.00 0.00 97 1096.4
20260507112655 37 26 0.0 0.0 0.00 0.00 0.00 97 1096.1
20260507112151 36 26 0.0 0.0 0.00 0.00 0.00 97 1096.3
20260507111649 35 24 0.0 0.0 0.00 0.00 0.00 97 1096.1
20260507111145 35 21 0.0 0.0 0.00 0.00 0.00 97 1096.3
20260507110641 35 23 0.0 0.0 0.00 0.00 0.00 97 1096.1
20260507110138 35 21 0.0 0.0 0.00 0.00 0.00 97 1096.1
20260507105635 34 24 0.0 0.0 0.00 0.00 0.00 96 1096.0
20260507105131 34 22 0.0 0.0 0.00 0.00 0.00 96 1095.8
20260507104628 34 25 0.0 0.0 0.00 0.00 0.00 96 1096.0
20260507104125 34 18 0.0 0.0 0.00 0.00 0.00 96 1095.8
20260507103621 34 22 0.0 0.0 0.00 0.00 0.00 96 1096.0
20260507103118 35 17 0.0 0.0 0.00 0.00 0.00 96 1096.0
20260507102614 35 6 0.0 0.0 0.00 0.00 0.00 96 1095.8
20260507102110 35 16 0.0 0.0 0.00 0.00 0.00 96 1095.9
20260507101607 34 19 0.0 0.0 0.00 0.00 0.00 97 1095.8
20260507101102 34 19 0.0 0.0 0.00 0.00 0.00 96 1095.9
20260507100600 35 19 0.0 0.0 0.00 0.00 0.00 96 1095.9
20260507100058 35 12 0.0 0.0 0.00 0.00 0.00 96 1095.7
20260507095555 35 20 0.0 0.0 0.00 0.00 0.00 96 1095.8
20260507095052 35 19 0.0 0.0 0.00 0.00 0.00 96 1095.9
20260507094548 35 19 0.0 0.0 0.00 0.00 0.00 96 1095.8
20260507094045 36 8 0.0 0.0 0.00 0.00 0.00 96 1096.0
20260507093543 35 12 0.0 0.0 0.00 0.00 0.00 96 1095.8
20260507093042 36 18 0.0 0.0 0.00 0.00 0.00 96 1095.6
20260507092537 36 19 0.0 0.0 0.00 0.00 0.00 96 1095.9
20260507092034 35 10 0.0 0.0 0.00 0.00 0.00 96 1095.9
20260507091531 35 21 0.0 0.0 0.00 0.00 0.00 95 1096.1
20260507091027 35 22 0.0 0.0 0.00 0.00 0.00 95 1096.0
20260507090523 35 22 0.0 0.0 0.00 0.00 0.00 95 1095.9
20260507090020 36 18 0.0 0.0 0.00 0.00 0.00 95 1096.0
20260507085517 36 12 0.0 0.0 0.00 0.00 0.00 95 1095.9
20260507085014 36 23 0.0 0.0 0.00 0.00 0.00 95 1095.8
20260507084510 36 22 0.0 0.0 0.00 0.00 0.00 95 1095.9
20260507084008 36 21 0.0 0.0 0.00 0.00 0.00 95 1095.8
20260507083503 37 19 0.0 0.0 0.00 0.00 0.00 94 1095.9
20260507083000 37 21 0.0 0.0 0.00 0.00 0.00 94 1095.8
20260507082457 38 13 0.0 0.0 0.00 0.00 0.00 94 1096.0
20260507081953 38 7 0.0 0.0 0.00 0.00 0.00 94 1095.9
20260507081449 38 16 0.0 0.0 0.00 0.00 0.00 94 1096.0
20260507080947 38 9 0.0 0.0 0.00 0.00 0.00 94 1095.7
20260507080442 38 352 0.0 0.0 0.00 0.00 0.00 93 1095.9
20260507075937 38 2 0.0 0.0 0.00 0.00 0.00 93 1096.0
20260507075434 38 14 0.0 0.0 0.00 0.00 0.00 93 1096.0
20260507074931 38 33 0.0 0.0 0.00 0.00 0.00 93 1095.9
20260507074428 38 13 0.0 0.0 0.00 0.00 0.00 92 1096.0
20260507073926 38 12 0.0 0.0 0.00 0.00 0.00 92 1096.0
20260507073422 39 13 0.0 0.0 0.00 0.00 0.00 91 1095.7
20260507072919 40 14 0.0 0.0 0.00 0.00 0.00 91 1096.0
20260507072416 40 26 0.0 0.0 0.00 0.00 0.00 91 1095.8
20260507071914 40 27 0.0 0.0 0.00 0.00 0.00 92 1095.9
20260507071411 40 26 0.0 0.0 0.00 0.00 0.00 91 1096.1
20260507070907 39 23 0.0 0.0 0.00 0.00 0.00 91 1096.3
20260507070404 40 24 0.0 0.0 0.00 0.00 0.00 89 1096.0
20260507065901 40 23 0.0 0.0 0.00 0.00 0.00 89 1096.3
20260507065357 41 20 0.0 0.0 0.00 0.00 0.00 88 1095.9
20260507064855 41 18 0.0 0.0 0.00 0.00 0.00 88 1096.1
20260507064353 42 15 0.0 0.0 0.00 0.00 0.00 88 1096.1
20260507063851 42 13 0.0 0.0 0.00 0.00 0.00 87 1096.2
20260507063348 42 22 0.0 0.0 0.00 0.00 0.00 86 1096.1
20260507062844 42 22 0.0 0.0 0.00 0.00 0.00 86 1096.1
20260507062341 42 24 0.0 0.0 0.00 0.00 0.00 85 1096.0
20260507061839 42 32 0.0 0.0 0.00 0.00 0.00 84 1096.1
20260507061337 43 23 0.0 0.0 0.00 0.00 0.00 82 1096.1
20260507060835 43 18 0.0 0.0 0.00 0.00 0.00 81 1096.4
20260507060331 44 20 0.0 0.0 0.00 0.00 0.00 80 1096.3
20260507055828 44 18 0.0 0.0 0.00 0.00 0.00 79 1096.3
20260507055323 44 22 0.0 0.0 0.00 0.00 0.00 79 1096.3
20260507054820 45 15 0.0 0.0 0.00 0.00 0.00 79 1096.3
20260507054316 45 28 0.0 0.0 0.00 0.00 0.00 78 1096.3
20260507053814 45 24 0.0 0.0 0.00 0.00 0.00 77 1096.6
20260507053311 46 24 0.0 0.0 0.00 0.00 0.00 76 1096.7
20260507052810 46 27 0.0 0.0 0.00 0.00 0.00 75 1096.7
20260507052307 47 33 0.0 0.0 0.00 0.00 0.00 76 1096.9
20260507051804 47 26 0.0 0.0 0.00 0.00 0.00 75 1097.1
20260507051302 47 28 0.0 0.0 0.00 0.00 0.00 73 1097.0
20260507050758 47 25 0.0 1.0 0.00 0.00 0.00 70 1096.8
20260507050254 48 27 0.0 0.0 0.00 0.00 0.00 70 1097.1
20260507045751 47 28 0.0 0.0 0.00 0.00 0.00 71 1097.1
20260507045247 47 25 0.0 0.0 0.00 0.00 0.00 68 1097.1
20260507044745 47 22 0.0 0.0 0.00 0.00 0.00 66 1097.0
20260507044241 47 21 2.0 4.0 0.00 0.00 0.00 66 1097.0
20260507043737 47 22 0.0 1.0 0.00 0.00 0.00 67 1097.0
20260507043234 48 24 0.0 1.0 0.00 0.00 0.00 67 1097.0
20260507042731 48 23 1.0 2.0 0.00 0.00 0.00 66 1097.1
20260507042226 47 23 1.0 2.0 0.00 0.00 0.00 67 1096.9
20260507041724 47 15 2.0 2.0 0.00 0.00 0.00 67 1097.0
20260507041220 47 25 0.0 1.0 0.00 0.00 0.00 67 1097.0
20260507040717 47 23 0.0 1.0 0.00 0.00 0.00 68 1096.9
20260507040213 47 20 0.0 2.0 0.00 0.00 0.00 70 1096.7
20260507035709 47 21 0.0 0.0 0.00 0.40 0.40 70 1096.8
20260507035205 47 24 0.0 0.0 0.00 0.40 0.40 71 1096.8
20260507034702 48 19 0.0 0.0 0.00 0.40 0.40 69 1096.8
20260507034200 48 17 0.0 0.0 0.00 0.40 0.40 69 1096.9
20260507033658 48 18 0.0 1.0 0.00 0.40 0.40 68 1096.7
20260507033155 49 27 0.0 0.0 0.00 0.40 0.40 62 1096.6
20260507032652 49 20 0.0 1.0 0.00 0.40 0.40 61 1096.6
20260507032148 49 23 1.0 2.0 0.00 0.40 0.40 61 1096.6
20260507031645 49 17 0.0 1.0 0.00 0.40 0.40 61 1096.6
20260507031141 49 18 1.0 2.0 0.00 0.40 0.40 61 1096.6
20260507030638 49 21 0.0 2.0 0.00 0.40 0.40 62 1096.7
20260507030136 49 25 1.0 1.0 0.00 0.40 0.40 61 1096.7
20260507025633 49 14 1.0 1.0 0.00 0.40 0.40 60 1096.7
20260507025130 49 18 0.0 0.0 0.00 0.40 0.40 61 1096.4
20260507024628 49 23 0.0 1.0 0.00 0.40 0.40 60 1096.3
20260507024125 49 23 0.0 0.0 0.00 0.40 0.40 61 1096.2
20260507023620 49 23 0.0 1.0 0.00 0.40 0.40 60 1096.4